吉林一号 高分 3D28 (JILIN-1 GAOFEN 3D28)

导读

JILIN-01 GAOFEN 3D 28是中国于2022年5月5日发射的吉林一号高分03D系列卫星,隶属于吉林一号商业遥感卫星星座。该卫星主要用于获取高分辨率遥感影像,可在自然资源监测、智慧城市建设、农业估产、灾害预警等领域提供数据服务,进一步提升了吉林一号星座的对地观测能力。

基本信息
目录编号:
52445
目录名称:
JILIN-01 GAOFEN 3D 28
国际标识:
2022-048C
轨道中心:
EARTH
卫星名称:
高分 3D28
卫星全名:
吉林一号 高分 3D28 (JILIN-1 GAOFEN 3D28)
卫星状态:
在轨 (已飞行1499 天)
发射日期:
2022-05-05 UTC
国别 :
中国 (CN)
星等 :
--
轨道信息
数据来源 国际轨道数据
星历时间: 2026-06-12T14:30:10+0800
13小时前
查看轨道信息
半长轴: 6716.826km
偏心率: 0.0001037
轨道倾角: 97.564°
近地点辐角 153.158°
升交点赤经 276.895°
平近点角 206.974°
近地点: 337.992km
远地点: 339.386km
周期: 91.307分钟
每日圈数: 15.770905
详细信息
卫星平台:
高分卫星平台
平衡模式:
三轴稳定
覆盖范围:
全球
运营商:
长光卫星技术股份有限公司
运营商所在国:
中国
制造商(研发单位):
长光卫星技术股份有限公司
制造商所在国:
中国
使用方式:
暂无
卫星简介
“吉林一号”卫星星座(JiLin-1)是长光卫星技术有限公司在建的核心工程,是我国目前最大的商业遥感卫星星座,具备了较强的服务能力。该卫星仍在工作。
2D轨道图
3D轨道图
轨道高度分析图
轨道倾角分析图
轨道综合分析图
查看轨道综合分析图